When you browse on this site, cookies collect data to enhance your experience and personalize the content and advertising you see.
Visit our Privacy Policy to learn more. By continuing to use the site, you agree to this use of cookies and data.

Hourly Weather Lampeter

Today, 3 July, Friday

Time Temperature Precipitation Wind Pressure Humidity
00:00 +10°C° 0 mm 4 mps 752 mmHg 78%
01:00 +10°C° 0.4 mm 3 mps 751 mmHg 83%
02:00 +9°C° 0.4 mm 2 mps 751 mmHg 89%
03:00 +9°C° 0.4 mm 2 mps 750 mmHg 94%
04:00 +10°C° 0.5 mm 2 mps 750 mmHg 94%
05:00 +10°C° 0.5 mm 2 mps 749 mmHg 94%
06:00 +10°C° 0 mm 2 mps 749 mmHg 95%
07:00 +11°C° 0.8 mm 3 mps 748 mmHg 95%
08:00 +11°C° 0.8 mm 3 mps 748 mmHg 95%
09:00 +11°C° 0.8 mm 4 mps 747 mmHg 95%
10:00 +12°C° 0.5 mm 4 mps 747 mmHg 95%
11:00 +13°C° 0.5 mm 4 mps 746 mmHg 95%
12:00 +13°C° 0 mm 4 mps 746 mmHg 96%
13:00 +13°C° 0.9 mm 4 mps 746 mmHg 96%
14:00 +14°C° 0.9 mm 4 mps 746 mmHg 96%
15:00 +14°C° 0.9 mm 4 mps 746 mmHg 96%
16:00 +13°C° 0.6 mm 4 mps 746 mmHg 94%
17:00 +13°C° 0.6 mm 5 mps 746 mmHg 92%
18:00 +11°C° 0.6 mm 6 mps 746 mmHg 90%
19:00 +10°C° 0 mm 5 mps 747 mmHg 91%
20:00 +9°C° 0 mm 5 mps 747 mmHg 91%
21:00 +10°C° 0 mm 4 mps 747 mmHg 92%
22:00 +8°C° 0 mm 4 mps 747 mmHg 92%
23:00 +9°C° 0 mm 3 mps 748 mmHg 93%

Tomorrow, 4 July, Saturday

Time Temperature Precipitation Wind Pressure Humidity
00:00 +8°C° 0 mm 3 mps 748 mmHg 94%
01:00 +9°C° 0 mm 2 mps 748 mmHg 93%
02:00 +9°C° 0 mm 2 mps 748 mmHg 92%
03:00 +9°C° 0 mm 2 mps 748 mmHg 92%
04:00 +10°C° 0 mm 2 mps 747 mmHg 91%
05:00 +10°C° 0 mm 2 mps 747 mmHg 90%
06:00 +12°C° 0 mm 2 mps 747 mmHg 89%
07:00 +12°C° 0.3 mm 2 mps 747 mmHg 90%
08:00 +12°C° 0.3 mm 2 mps 747 mmHg 92%
09:00 +12°C° 0.3 mm 2 mps 747 mmHg 94%
10:00 +12°C° 0.1 mm 2 mps 747 mmHg 93%
11:00 +13°C° 0.1 mm 2 mps 747 mmHg 92%
12:00 +12°C° 0.1 mm 3 mps 748 mmHg 91%
13:00 +13°C° 0 mm 3 mps 748 mmHg 88%
14:00 +14°C° 0 mm 4 mps 747 mmHg 84%
15:00 +15°C° 0 mm 5 mps 747 mmHg 80%
16:00 +15°C° 0 mm 4 mps 747 mmHg 81%
17:00 +15°C° 0 mm 4 mps 747 mmHg 82%
18:00 +16°C° 0 mm 3 mps 747 mmHg 82%
19:00 +14°C° 0 mm 3 mps 746 mmHg 85%
20:00 +14°C° 0 mm 3 mps 746 mmHg 87%
21:00 +14°C° 0 mm 2 mps 745 mmHg 89%
22:00 +13°C° 0.8 mm 3 mps 744 mmHg 92%
23:00 +14°C° 0.8 mm 4 mps 742 mmHg 94%

Day after tomorrow, 5 July, Sunday

Time Temperature Precipitation Wind Pressure Humidity
00:00 +14°C° 0.8 mm 5 mps 741 mmHg 96%
01:00 +14°C° 1.1 mm 7 mps 739 mmHg 94%
02:00 +15°C° 1.1 mm 8 mps 738 mmHg 92%
03:00 +14°C° 1.1 mm 10 mps 737 mmHg 90%
04:00 +13°C° 0.1 mm 11 mps 737 mmHg 87%
05:00 +12°C° 0.1 mm 11 mps 737 mmHg 84%
06:00 +10°C° 0.1 mm 12 mps 738 mmHg 81%
07:00 +10°C° 0.1 mm 12 mps 739 mmHg 78%
08:00 +10°C° 0.1 mm 12 mps 740 mmHg 76%
09:00 +10°C° 0.1 mm 12 mps 741 mmHg 73%
10:00 +12°C° 0.1 mm 12 mps 741 mmHg 71%
11:00 +13°C° 0.1 mm 11 mps 742 mmHg 68%
12:00 +14°C° 0.1 mm 11 mps 743 mmHg 66%
13:00 +13°C° 0.2 mm 10 mps 743 mmHg 69%
14:00 +13°C° 0.2 mm 10 mps 743 mmHg 72%
15:00 +12°C° 0.2 mm 9 mps 743 mmHg 75%
16:00 +12°C° 0.2 mm 9 mps 743 mmHg 77%
17:00 +11°C° 0.2 mm 8 mps 743 mmHg 78%
18:00 +11°C° 0.2 mm 8 mps 743 mmHg 80%
19:00 +10°C° 0 mm 7 mps 744 mmHg 82%
20:00 +9°C° 0 mm 6 mps 744 mmHg 85%
21:00 +9°C° 0 mm 5 mps 745 mmHg 87%
22:00 +8°C° 0 mm 5 mps 745 mmHg 87%
23:00 +8°C° 0 mm 5 mps 745 mmHg 88%

6 July, Monday

Time Temperature Precipitation Wind Pressure Humidity
00:00 +8°C° 0 mm 5 mps 746 mmHg 88%
01:00 +8°C° 0.1 mm 5 mps 747 mmHg 89%
02:00 +9°C° 0.1 mm 5 mps 747 mmHg 90%
03:00 +9°C° 0.1 mm 5 mps 748 mmHg 92%
04:00 +9°C° 0.1 mm 5 mps 749 mmHg 90%
05:00 +11°C° 0.1 mm 4 mps 750 mmHg 89%
06:00 +11°C° 0.1 mm 4 mps 750 mmHg 87%
07:00 +12°C° 0.1 mm 5 mps 752 mmHg 82%
08:00 +13°C° 0.1 mm 5 mps 753 mmHg 77%
09:00 +14°C° 0.1 mm 5 mps 754 mmHg 72%
10:00 +15°C° 0.2 mm 5 mps 755 mmHg 69%
11:00 +15°C° 0.2 mm 5 mps 756 mmHg 65%
12:00 +16°C° 0.2 mm 5 mps 756 mmHg 62%
13:00 +16°C° 0.1 mm 5 mps 757 mmHg 61%
14:00 +16°C° 0.1 mm 5 mps 758 mmHg 60%
15:00 +16°C° 0.1 mm 5 mps 758 mmHg 59%
16:00 +16°C° 0 mm 5 mps 758 mmHg 62%
17:00 +15°C° 0 mm 5 mps 759 mmHg 64%
18:00 +15°C° 0 mm 5 mps 759 mmHg 66%
19:00 +13°C° 0 mm 5 mps 759 mmHg 70%
20:00 +10°C° 0 mm 5 mps 759 mmHg 73%
21:00 +9°C° 0 mm 5 mps 759 mmHg 77%
22:00 +8°C° 0 mm 5 mps 759 mmHg 79%
23:00 +8°C° 0 mm 5 mps 759 mmHg 82%

7 July, Tuesday

Time Temperature Precipitation Wind Pressure Humidity
00:00 +7°C° 0 mm 5 mps 759 mmHg 85%
01:00 +7°C° 0 mm 5 mps 759 mmHg 87%
02:00 +8°C° 0 mm 5 mps 759 mmHg 90%
03:00 +8°C° 0 mm 5 mps 759 mmHg 92%
04:00 +8°C° 0 mm 5 mps 759 mmHg 88%
05:00 +9°C° 0 mm 5 mps 759 mmHg 85%
06:00 +9°C° 0 mm 5 mps 759 mmHg 81%
07:00 +10°C° 0 mm 5 mps 759 mmHg 77%
08:00 +12°C° 0 mm 5 mps 759 mmHg 73%
09:00 +13°C° 0 mm 5 mps 759 mmHg 68%
10:00 +14°C° 0 mm 5 mps 759 mmHg 67%
11:00 +14°C° 0 mm 5 mps 759 mmHg 66%
12:00 +14°C° 0 mm 5 mps 759 mmHg 65%
13:00 +15°C° 0 mm 5 mps 759 mmHg 65%
14:00 +15°C° 0 mm 5 mps 759 mmHg 66%
15:00 +15°C° 0 mm 5 mps 759 mmHg 66%
16:00 +15°C° 0 mm 4 mps 759 mmHg 68%
17:00 +14°C° 0 mm 4 mps 758 mmHg 69%
18:00 +14°C° 0 mm 3 mps 758 mmHg 71%
19:00 +13°C° 0 mm 3 mps 758 mmHg 75%
20:00 +12°C° 0 mm 3 mps 758 mmHg 80%
21:00 +12°C° 0 mm 2 mps 757 mmHg 84%
22:00 +12°C° 0.2 mm 2 mps 757 mmHg 87%
23:00 +12°C° 0.2 mm 2 mps 756 mmHg 90%

8 July, Wednesday

Time Temperature Precipitation Wind Pressure Humidity
00:00 +10°C° 0.2 mm 2 mps 756 mmHg 93%
01:00 +10°C° 1.2 mm 2 mps 755 mmHg 94%
02:00 +10°C° 1.2 mm 2 mps 754 mmHg 95%
03:00 +11°C° 1.2 mm 3 mps 753 mmHg 96%
04:00 +12°C° 1 mm 2 mps 752 mmHg 97%
05:00 +12°C° 1 mm 2 mps 752 mmHg 97%
06:00 +13°C° 1 mm 2 mps 751 mmHg 97%
07:00 +13°C° 0.3 mm 3 mps 750 mmHg 97%
08:00 +13°C° 0.3 mm 4 mps 750 mmHg 96%
09:00 +14°C° 0.3 mm 5 mps 750 mmHg 96%
10:00 +15°C° 0.2 mm 5 mps 749 mmHg 95%
11:00 +15°C° 0.2 mm 6 mps 749 mmHg 94%
12:00 +15°C° 0.2 mm 6 mps 749 mmHg 93%
13:00 +15°C° 0.1 mm 7 mps 749 mmHg 91%
14:00 +15°C° 0.1 mm 7 mps 749 mmHg 89%
15:00 +15°C° 0.1 mm 8 mps 749 mmHg 87%
16:00 +15°C° 0 mm 8 mps 749 mmHg 82%
17:00 +15°C° 0 mm 8 mps 750 mmHg 78%
18:00 +15°C° 0 mm 9 mps 750 mmHg 73%
19:00 +14°C° 0 mm 7 mps 751 mmHg 75%
20:00 +13°C° 0 mm 6 mps 752 mmHg 78%
21:00 +12°C° 0 mm 5 mps 753 mmHg 80%
22:00 +11°C° 0 mm 4 mps 754 mmHg 81%
23:00 +10°C° 0 mm 3 mps 755 mmHg 82%
Show more